AO-07 1 07530U 74089B 21231.71736058 -.00000034 00000-0 71163-4 0 9999 2 07530 101.8594 206.1658 0011805 261.1104 271.6042 12.53649855139893 UO-11 1 14781U 84021B 21231.53543017 .00000080 00000-0 15834-4 0 9996 2 14781 97.5954 228.2781 0007205 227.2107 132.8502 14.83313277995280 LO-19 1 20442U 90005G 21231.32862255 -.00000003 00000-0 15614-4 0 9993 2 20442 98.7459 187.3831 0011426 341.9907 18.0870 14.32994203649835 HUBBLE 1 20580U 90037B 21231.57671095 .00000541 00000-0 21731-4 0 9991 2 20580 28.4710 7.3921 0002808 26.7064 28.7780 15.09707274520544 MET-2/21 1 22782U 93055A 21231.33442867 .00000041 00000-0 23357-4 0 9998 2 22782 82.5459 254.0007 0023652 113.9576 257.1508 13.83836813412227 AO-27 1 22825U 93061C 21231.55575128 .00000001 00000-0 18379-4 0 9998 2 22825 98.9163 250.7143 0007947 204.3514 155.7293 14.30121851455007 IO-26 1 22826U 93061D 21231.58114990 .00000002 00000-0 18623-4 0 9991 2 22826 98.9105 250.6431 0008708 191.4208 168.6778 14.30461797455259 FO-29 1 24278U 96046B 21231.44905659 -.00000007 00000-0 30730-4 0 9994 2 24278 98.5627 291.0625 0350088 346.6172 12.5861 13.53105040234767 NOAA-15 1 25338U 98030A 21231.65420997 .00000060 00000-0 43371-4 0 9990 2 25338 98.6790 259.6023 0011584 96.6916 263.5582 14.26053181210257 GO-32 1 25397U 98043D 21231.30523719 -.00000028 00000-0 71921-5 0 9995 2 25397 98.7739 176.6963 0000183 231.6687 128.4474 14.23713462200436 ISS 1 25544U 98067A 21231.85950031 .00001072 00000-0 27662-4 0 9997 2 25544 51.6440 27.8463 0001517 333.1303 175.6838 15.48918110298467 NO-44 1 26931U 01043C 21231.44666268 -.00000034 00000-0 18914-4 0 9995 2 26931 67.0511 117.8662 0005606 264.5427 95.5034 14.30628728 38201 SO-50 1 27607U 02058C 21231.72853776 .00000002 00000-0 20764-4 0 9996 2 27607 64.5555 144.8512 0048469 1.3845 358.7383 14.75776900 4053 CO-55 1 27844U 03031E 21231.57789503 .00000056 00000-0 44917-4 0 9995 2 27844 98.6808 238.8328 0008663 254.5925 105.4296 14.22326393940954 CO-57 1 27848U 03031J 21231.23805209 .00000044 00000-0 39623-4 0 9999 2 27848 98.6863 239.0587 0008532 271.0512 88.9688 14.21901370940739 RS-22 1 27939U 03042A 21231.81451054 .00000061 00000-0 19577-4 0 9996 2 27939 98.1488 8.4961 0014260 81.6908 278.5912 14.67011543956818 NOAA-18 1 28654U 05018A 21231.69690302 .00000076 00000-0 65037-4 0 9991 2 28654 98.9898 296.7997 0015343 103.5726 256.7156 14.12631030837468 CO-58 1 28895U 05043F 21231.30789944 .00000118 00000-0 31443-4 0 9996 2 28895 98.0669 3.2017 0016996 17.2758 342.9019 14.63945015843209 Falconsat-3 1 30776U 07006E 21231.59206415 .00004111 00000-0 97170-4 0 9992 2 30776 35.4347 54.2627 0001306 129.4962 230.5882 15.41369710802858 CO-65 1 32785U 08021C 21231.37707711 .00000231 00000-0 30274-4 0 9994 2 32785 97.6161 207.7957 0013678 148.6642 211.5393 14.88773193721533 AAUSAT2 1 32788U 08021F 21231.51141139 .00000713 00000-0 68948-4 0 9993 2 32788 97.5078 223.5370 0013087 62.2734 297.9814 14.95691289723287 DO-64 1 32789U 08021G 21231.40478673 .00001314 00000-0 86285-4 0 9990 2 32789 97.3729 264.3428 0009891 288.3871 71.6282 15.09259739726327 CO-66 1 32791U 08021J 21231.42730416 .00000533 00000-0 58573-4 0 9992 2 32791 97.5755 213.6920 0014635 113.5595 246.7163 14.91479852722160 RS-30 1 32953U 08025A 21231.72903466 .00000021 00000-0 80971-4 0 9995 2 32953 82.5057 11.5721 0019476 196.5706 163.4742 12.43103819600846 PRISM 1 33493U 09002B 21231.26226736 .00001298 00000-0 11580-3 0 9994 2 33493 98.1943 196.8532 0016907 79.9050 280.4078 14.97788482683728 NOAA-19 1 33591U 09005A 21231.66607713 .00000036 00000-0 44690-4 0 9996 2 33591 99.1815 253.9303 0013199 318.3822 41.6344 14.12489994645841 SRMSAT 1 37841U 11058D 21231.53461253 .00000314 00000-0 27162-4 0 9996 2 37841 19.9717 279.8153 0011653 267.1968 241.6050 14.10701146508555 HRBE 1 37855U 11061F 21231.52612146 .00000840 00000-0 47850-4 0 9993 2 37855 101.7141 187.6568 0165566 242.9947 115.4279 15.08016883535688 RS-40 1 38735U 12041C 21231.47754748 .00000007 00000-0 -18843-4 0 9995 2 38735 82.4746 93.8012 0016778 311.9557 48.0094 12.42583444411011 ZACUBE-1 1 39417U 13066B 21231.39595089 .00000287 00000-0 42093-4 0 9996 2 39417 97.5974 212.4774 0057474 316.0455 43.6194 14.81568714418392 GOMX-1 1 39430U 13066Q 21231.73620948 .00000159 00000-0 38206-4 0 9991 2 39430 97.8102 151.1686 0149004 275.7996 82.6250 14.59656732412276 LO-74 1 39440U 13066AA 21231.35185315 .00000272 00000-0 44410-4 0 9994 2 39440 97.6813 197.6102 0080712 32.4103 328.2028 14.76289288415700 AO-73 1 39444U 13066AE 21231.40881975 .00000342 00000-0 47894-4 0 9996 2 39444 97.5877 214.8649 0056304 305.8301 53.7689 14.82487744416762 SPROUT 1 39770U 14029E 21231.73310393 .00000667 00000-0 77703-4 0 9997 2 39770 97.9210 342.9740 0009104 8.8073 351.3332 14.88572635392750 DTUSAT-2 1 40030U 14033W 21231.72359347 .00000266 00000-0 34209-4 0 9993 2 40030 97.9150 158.9573 0011200 334.1190 25.9465 14.89047727389249 EO-80 1 40032U 14033Y 21231.55417638 .00000324 00000-0 40475-4 0 9991 2 40032 97.9155 158.7956 0011192 335.5039 24.5645 14.89006324388686 HODOYOSHI-1 1 40299U 14070B 21231.83585676 .00000852 00000-0 37035-4 0 9990 2 40299 97.2823 303.6939 0014277 120.4705 16.1394 15.24858213377077 FIREBIRD FU3 1 40377U 15003B 21231.37427320 .00001809 00000-0 68455-4 0 9997 2 40377 99.1077 25.8370 0115714 322.3772 36.9404 15.22877152362362 FIREBIRD FU4 1 40378U 15003C 21231.41422751 .00001799 00000-0 67986-4 0 9992 2 40378 99.1082 26.0368 0115797 322.0314 37.2793 15.22930128362378 GRIFEX 1 40379U 15003D 21231.67171957 .00001261 00000-0 54198-4 0 9995 2 40379 99.1040 15.1129 0127257 355.2336 4.7671 15.18415255361785 NO-84 1 40654U 15025D 21230.30268145 .00029801 00000-0 17784-3 0 1159 2 40654 54.9773 108.5971 0063920 227.7675 131.7932 15.74777499 16781 XW-2A 1 40903U 15049E 21231.87668170 .00003479 00000-0 73493-4 0 9990 2 40903 97.2314 286.1662 0013399 137.7271 277.0591 15.45777681332592 XW-2C 1 40906U 15049H 21231.83101914 .00000728 00000-0 40361-4 0 9999 2 40906 97.4882 233.4005 0013683 334.0634 147.1515 15.16878516327172 XW-2D 1 40907U 15049J 21231.87700096 .00001063 00000-0 56781-4 0 9996 2 40907 97.4868 233.2625 0012962 330.3036 148.4272 15.17219543327216 LILACSAT-2 1 40908U 15049K 21231.84940207 .00000456 00000-0 28332-4 0 9990 2 40908 97.5069 230.9858 0015309 346.5991 132.2976 15.14521126326828 XW-2E 1 40909U 15049L 21231.85804579 .00001502 00000-0 73373-4 0 9991 2 40909 97.4668 237.3334 0011682 314.5064 164.7231 15.19767699327567 XW-2F 1 40910U 15049M 21231.73862491 .00001459 00000-0 72365-4 0 9998 2 40910 97.4737 236.2981 0012803 314.6451 99.7484 15.19266966327332 XW-2B 1 40911U 15049N 21231.76162836 .00000969 00000-0 52185-4 0 9991 2 40911 97.4868 233.8211 0012863 332.0691 202.5377 15.17133663327085 DCBB 1 40912U 15049P 21231.83959582 .00001579 00000-0 72482-4 0 9992 2 40912 97.4450 240.7807 0012402 281.4664 201.6551 15.21837004327839 TW-1A 1 40928U 15051D 21231.64104464 .00005555 00000-0 11321-3 0 9994 2 40928 97.0742 255.0421 0011094 66.7694 80.3276 15.46564849331450 IO-86 1 40931U 15052B 21231.62573864 .00000657 00000-0 23494-5 0 9995 2 40931 5.9965 161.8143 0013463 219.7844 140.1448 14.76684159318655 ATHENOXAT-1 1 41168U 15077C 21231.45098561 .00002420 00000-0 86699-4 0 9997 2 41168 14.9893 157.7490 0011089 332.7411 175.1226 15.15948237314354 ChubuSat-2 1 41338U 16012B 21231.46192281 .00000400 00000-0 24198-4 0 9993 2 41338 31.0025 145.2261 0013481 37.9108 322.2475 15.00575153302077 ChubuSat-3 1 41339U 16012C 21231.81141641 .00000374 00000-0 22131-4 0 9992 2 41339 31.0115 140.1662 0013314 48.5590 311.6196 15.00719421302121 Horyu-4 1 41340U 16012D 21231.42244480 .00000615 00000-0 39270-4 0 9996 2 41340 31.0047 125.4254 0013513 78.4268 281.7884 15.01967306302269 e-st@r-II 1 41459U 16025D 21231.64110189 .00002788 00000-0 13816-3 0 9993 2 41459 98.1498 11.6515 0158771 209.1050 150.1260 15.08353658291943 AAUSAT4 1 41460U 16025E 21231.67115412 .00005264 00000-0 24379-3 0 9990 2 41460 98.1492 15.8858 0145681 191.8430 167.9374 15.11582883292266 LO-87 1 41557U 16033B 21231.79213250 .00001844 00000-0 66508-4 0 9999 2 41557 97.3943 325.3901 0013150 17.9363 98.5062 15.29742432291215 NuSat2 1 41558U 16033C 21231.77217530 .00001902 00000-0 64325-4 0 9993 2 41558 97.4055 329.4857 0011995 11.4725 107.0901 15.31838838291411 Lapan A3 1 41603U 16040E 21231.73059973 .00000188 00000-0 11723-4 0 9992 2 41603 97.2514 276.2441 0014468 135.4637 4.0985 15.20075935286191 Pratham 1 41783U 16059A 21231.58564920 .00000053 00000-0 19294-4 0 9999 2 41783 97.9595 279.5118 0034533 48.6468 311.7696 14.63158531261487 TY-1 1 41844U 16066D 21231.87711668 .00001186 00000-0 48921-4 0 9997 2 41844 97.3993 241.4416 0012683 275.4559 206.6046 15.25969937265577 CAS-2T 1 41847U 16066G 21231.57671705 .00000078 00000-0 21680-4 0 9996 2 41847 98.5965 290.9491 0365697 32.1285 330.1630 14.38225783250959 EO-88 1 42017U 17008BX 21231.47918133 .00002196 00000-0 81768-4 0 9997 2 42017 97.3121 297.9506 0004479 233.5977 126.4850 15.28525734250888 CAS-4B 1 42759U 17034B 21231.78364340 .00000183 00000-0 24294-4 0 9993 2 42759 43.0164 192.8867 0008346 210.7365 224.3859 15.10309656230726 CAS-4A 1 42761U 17034D 21231.77034653 .00000236 00000-0 27380-4 0 9994 2 42761 43.0171 191.9686 0008743 211.0832 220.8069 15.10398088230721 NIUSat 1 42766U 17036B 21231.52685673 .00001277 00000-0 57205-4 0 9993 2 42766 97.2456 275.3014 0013611 318.6424 41.3782 15.22948179230819 Aalto 1 1 42775U 17036L 21231.56838220 .00001028 00000-0 46755-4 0 9997 2 42775 97.2423 275.5583 0012149 318.2078 41.8231 15.22856850230809 URSA MAIOR 1 42776U 17036M 21231.55953849 .00001149 00000-0 51479-4 0 9995 2 42776 97.2437 276.0528 0011896 317.5719 42.4597 15.23138625230820 Max Valier Sat 1 42778U 17036P 21231.54503601 .00001258 00000-0 54994-4 0 9999 2 42778 97.2504 278.0780 0010438 320.5954 39.4523 15.23821204230899 Pegasus 1 42784U 17036V 21231.57762649 .00001571 00000-0 66273-4 0 9999 2 42784 97.2457 278.6200 0010130 323.8847 36.1706 15.24689091230975 NUDATSat 1 42787U 17036Y 21231.56650218 .00002619 00000-0 10212-3 0 9994 2 42787 97.2504 281.2302 0009911 319.0094 41.0398 15.26770022230968 SUCHAI 1 1 42788U 17036Z 21231.54282285 .00001926 00000-0 78647-4 0 9995 2 42788 97.2467 279.6599 0009492 320.7502 39.3047 15.25532846231100 SKCUBE 1 42789U 17036AA 21231.58338637 .00001752 00000-0 72427-4 0 9990 2 42789 97.2460 279.3805 0009463 321.5288 38.5275 15.25245680231010 VZLUSAT 1 1 42790U 17036AB 21231.56169098 .00002418 00000-0 94615-4 0 9996 2 42790 97.2496 281.2145 0008595 316.0095 44.0459 15.26737283231113 VENTA 1 1 42791U 17036AC 21231.37025497 .00001600 00000-0 66538-4 0 9995 2 42791 97.2457 279.1801 0009225 323.2469 36.8136 15.25171326230975 Robusta 1B 1 42792U 17036AD 21231.41095445 .00001844 00000-0 75505-4 0 9995 2 42792 97.2463 279.6181 0009033 322.3882 37.6724 15.25497630231023 D-SAT 1 42794U 17036AF 21231.55133367 .00000419 00000-0 41160-4 0 9995 2 42794 97.4602 248.0855 0125805 15.8220 344.6874 14.91644079226468 TechnoSat 1 42829U 17042E 21231.59252764 .00000184 00000-0 23673-4 0 9996 2 42829 97.4606 97.7482 0012795 300.0532 59.9418 14.91323298223097 QIKCOM-1 1 42983U 98067NF 21231.70274286 .00007658 00000-0 72739-4 0 9999 2 42983 51.6364 297.7339 0002136 233.2067 126.8734 15.68005212217324 AO-91 1 43017U 17073E 21231.70079315 .00000791 00000-0 65198-4 0 9994 2 43017 97.6999 133.1657 0256118 93.9661 269.0869 14.79645993202471 EcAMSat 1 43019U 98067NG 21231.36310273 .00032442 00000-0 14553-3 0 9997 2 43019 51.6364 257.8992 0000934 2.6635 357.4373 15.83833426300147 PICSAT 1 43132U 18004X 21231.40170098 .00001490 00000-0 60512-4 0 9996 2 43132 97.4063 305.3805 0008627 357.5107 2.6087 15.26123676200283 AO-92 1 43137U 18004AC 21231.17717873 .00001374 00000-0 57073-4 0 9992 2 43137 97.4035 304.5661 0008537 1.7495 358.3772 15.25488137200227 TianYi 2 1 43155U 18008A 21231.91993050 .00001352 00000-0 80776-4 0 9993 2 43155 97.3975 294.9713 0018767 108.0516 66.8193 15.12606592197664 Zhou Enlai 1 43156U 18008B 21231.84976944 .00001292 00000-0 78225-4 0 9998 2 43156 97.4019 294.7404 0016017 107.6160 312.6375 15.12223084197593 TianYi 6 1 43158U 18008D 21231.69515292 .00001024 00000-0 63779-4 0 9999 2 43158 97.3968 293.0735 0015093 107.7132 13.0241 15.11631445197495 S-Net D 1 43186U 18014G 21231.51798596 -.00000357 00000-0 -25961-4 0 9999 2 43186 97.6719 137.9588 0009648 226.4868 133.5553 14.97112396193738 S-Net B 1 43187U 18014H 21231.51792774 -.00000358 00000-0 -25972-4 0 9995 2 43187 97.6716 137.9229 0009648 226.3814 133.6608 14.97111789193735 S-Net A 1 43188U 18014J 21231.71853766 -.00000357 00000-0 -25934-4 0 9994 2 43188 97.6720 138.1673 0009665 225.8056 134.2373 14.97110591193767 S-Net C 1 43189U 18014K 21231.71902705 -.00000353 00000-0 -25621-4 0 9992 2 43189 97.6714 138.1122 0009682 225.6953 134.3476 14.97110094192316 FMN 1 1 43192U 18015A 21231.92562319 .00003246 00000-0 11938-3 0 9990 2 43192 97.4959 7.6557 0014823 23.9889 94.3337 15.28529956197289 Shaonian Xing 1 43199U 18015H 21231.64821193 .00002304 00000-0 87186-4 0 9997 2 43199 97.4740 4.2957 0016408 34.2233 93.9151 15.27877701197293 SurfSat 1 43614U 18070B 21231.53881676 .00004589 00000-0 10461-3 0 9998 2 43614 93.0360 332.2974 0016417 115.0282 245.2681 15.42811330164398 CP-7 DAVE 1 43615U 18070C 21231.50362504 .00004404 00000-0 10148-3 0 9998 2 43615 93.0365 332.2305 0016571 115.3054 244.9921 15.42492751164376 ELFIN-B 1 43616U 18070D 21231.52909185 .00007399 00000-0 15235-3 0 9991 2 43616 93.0317 332.5127 0016280 112.8706 247.4273 15.45796764164510 ELFIN-A 1 43617U 18070E 21231.66244684 .00007710 00000-0 15586-3 0 9999 2 43617 93.0367 333.4771 0015628 109.6189 250.6758 15.46341980164550 CubeBel-1 1 43666U 18083E 21231.86832352 .00001460 00000-0 71740-4 0 9995 2 43666 97.4531 259.4354 0013158 312.4538 172.1597 15.19572282155647 Changshagaoxin 1 43669U 18083H 21231.76587561 .00001299 00000-0 66581-4 0 9993 2 43669 97.4445 256.2123 0009306 310.0682 107.5797 15.18317248155492 Ten-Koh 1 43677U 18084G 21231.62784175 .00000270 00000-0 33509-4 0 9990 2 43677 97.9273 354.8546 0015956 181.5572 178.5599 14.90503127152718 PO-101 1 43678U 18084H 21231.77318828 .00000043 00000-0 99955-5 0 9991 2 43678 97.9308 357.4068 0009430 194.4179 165.6788 14.91774024152873 IRVINE 01 1 43693U 18088D 21231.51050128 .00003714 00000-0 14168-3 0 9999 2 43693 85.0367 153.0414 0017409 143.1091 217.1355 15.26153902154057 QO-100 1 43700U 18090A 21231.08159865 .00000126 00000-0 00000-0 0 9992 2 43700 0.0142 109.9195 0002171 66.3280 206.5606 1.00272645 9992 Reaktor Hello World 1 43743U 18096AA 21231.40899693 .00001794 00000-0 65917-4 0 9995 2 43743 97.3832 308.4433 0018368 56.9750 303.3252 15.29085959151758 MinXSS-2 1 43758U 18099A 21231.17143703 -.00000064 00000-0 -54312-6 0 9992 2 43758 97.6634 301.0553 0015080 193.4804 166.6016 14.96135105147894 AO-95 1 43770U 18099N 21231.41701106 .00000621 00000-0 61294-4 0 9992 2 43770 97.6614 300.2036 0013896 201.0585 159.0065 14.95391167147866 RANGE-B 1 43772U 18099Q 21231.49923852 .00000195 00000-0 22584-4 0 9991 2 43772 97.6703 301.3785 0013819 187.6557 172.4456 14.95709346147880 RANGE-A 1 43773U 18099R 21231.49433771 -.00000014 00000-0 38949-5 0 9992 2 43773 97.6547 299.5384 0013223 187.6002 172.5020 14.95265969147868 MOVE-II 1 43780U 18099Y 21231.15152483 .00000917 00000-0 86637-4 0 9998 2 43780 97.6636 300.5529 0012907 197.4732 162.6047 14.96033948147844 SNUSat 2 1 43782U 18099AA 21231.50659096 -.00000127 00000-0 -63074-5 0 9997 2 43782 97.6612 300.6544 0012504 186.3105 173.7961 14.95625968147893 SnugLite 1 43784U 18099AC 21231.44265256 -.00000075 00000-0 -16098-5 0 9999 2 43784 97.6575 300.3023 0014627 195.4302 164.6475 14.95756746147900 ITASat 1 1 43786U 18099AE 21231.45785950 .00000268 00000-0 29173-4 0 9999 2 43786 97.6630 300.9656 0014847 194.6772 165.4020 14.95672392147907 EAGLET 1 1 43790U 18099AJ 21231.14324239 .00000778 00000-0 74318-4 0 9996 2 43790 97.6623 301.0948 0013007 197.8440 162.2326 14.96023811147589 ESEO 1 43792U 18099AL 21231.67343969 .00000592 00000-0 58107-4 0 9999 2 43792 97.6586 301.1547 0012951 193.3744 166.7136 14.95767768147718 CSIM 1 43793U 18099AM 21231.39322066 .00000606 00000-0 58014-4 0 9997 2 43793 97.6617 301.3791 0012935 190.4534 169.6420 14.96694539147684 Astrocast 0.1 1 43798U 18099AS 21231.15024953 .00000825 00000-0 78075-4 0 9992 2 43798 97.6631 301.3238 0012456 176.4871 183.6440 14.96259764147895 JO-97 1 43803U 18099AX 21231.41105529 .00000887 00000-0 84156-4 0 9992 2 43803 97.6595 300.6647 0014731 193.6985 166.3839 14.95935383147901 Suomi 100 1 43804U 18099AY 21231.48473103 .00000692 00000-0 66890-4 0 9995 2 43804 97.6594 300.6981 0014737 193.6324 166.4502 14.95904681147922 Al Farabi 2 1 43805U 18099AZ 21231.60997271 .00000707 00000-0 67802-4 0 9998 2 43805 97.6604 301.0738 0014903 192.6824 167.4036 14.96135849147958 CHOMPTT 1 43855U 18104G 21231.55021373 .00001293 00000-0 51330-4 0 9995 2 43855 85.0341 251.6737 0014500 274.1459 85.8126 15.24175495148704 ISAT 1 43879U 18111D 21231.44102095 .00001030 00000-0 95116-4 0 9997 2 43879 97.6790 137.5734 0011113 251.0317 108.9677 14.96717660142470 UWE-4 1 43880U 18111E 21231.68657943 .00000878 00000-0 81431-4 0 9996 2 43880 97.6811 138.3280 0010549 249.4390 110.5700 14.96941772142542 Sparrow 1 43881U 18111F 21231.52114953 -.00000169 00000-0 -96164-5 0 9994 2 43881 97.6821 138.3106 0010915 249.4832 110.5219 14.97001987144520 Lume 1 1 43908U 18111AJ 21231.59253924 .00001606 00000-0 63924-4 0 9995 2 43908 97.2252 124.2684 0022076 69.1716 291.1885 15.26459314147306 FO-98 1 43933U 19003B 21231.56977394 .00010611 00000-0 38362-3 0 9998 2 43933 97.1799 270.6664 0016581 162.0946 198.0882 15.28487370143746 FO-99 1 43937U 19003F 21231.53891374 .00001888 00000-0 75505-4 0 9999 2 43937 97.1721 272.1870 0024080 145.1218 215.1605 15.26022372143882 MYSat 1 1 44045U 18092F 21231.72935176 .00003798 00000-0 10151-3 0 9994 2 44045 51.6377 117.2483 0010805 78.2375 281.9821 15.40611999141215 AstroCast 0.2 1 44083U 19018F 21231.65762762 .00001549 00000-0 69069-4 0 9991 2 44083 97.3682 291.5471 0014447 108.6366 251.6441 15.22810264132511 AISTechSat 3 1 44103U 19018AB 21231.82037006 .00001174 00000-0 50869-4 0 9991 2 44103 97.3544 292.1230 0014687 117.8838 306.2226 15.24254345132661 AISat 1 1 44104U 19018AC 21231.49595894 .00001583 00000-0 50808-4 0 9996 2 44104 97.4229 308.9329 0057692 129.9215 230.7117 15.32269344133322 Raavana-1 1 44329U 98067QE 21230.95876280 .00102873 00000-0 38250-3 0 9997 2 44329 51.6336 320.3474 0003172 345.8989 14.1926 15.87233643124057 Uguisu 1 44330U 98067QF 21231.24097927 .00081623 00000-0 32233-3 0 9999 2 44330 51.6283 319.8580 0002645 346.7150 13.3784 15.86090774124064 NepaliSat-1 1 44331U 98067QG 21231.52715255 .00095843 00000-0 35894-3 0 9997 2 44331 51.6307 317.2767 0003113 349.2117 10.8821 15.87114303124131 Prox-1 1 44339U 19036A 21231.52498489 .00000896 00000-0 16039-3 0 9995 2 44339 24.0002 296.9473 0010804 146.9569 213.1598 14.53684259114356 Oculus-ASR 1 44348U 19036K 21231.59662930 .00009787 00000-0 12639-3 0 9996 2 44348 28.5140 73.1168 0322276 231.3828 125.7493 15.14114001118481 Armadillo 1 44352U 19036P 21231.75597317 .00014203 00000-0 16908-3 0 9997 2 44352 28.5305 45.6967 0287374 274.0851 82.6950 15.22897100118722 NO-104 1 44354U 19036R 21231.56012766 .00009659 00000-0 12138-3 0 9998 2 44354 28.5304 65.6164 0317016 241.3889 115.4466 15.15702107118551 NO-103 1 44355U 19036S 21231.71527945 .00020580 -61338-5 19325-3 0 9994 2 44355 28.5282 8.3405 0246454 334.8619 24.0157 15.34228744119133 CP9 1 44360U 19036X 21231.47254070 .00083361 -45756-5 42258-3 0 9992 2 44360 28.4983 285.9620 0148182 111.2087 250.4418 15.65505402119793 Move-IIb 1 44398U 19038N 21231.56935624 .00001639 00000-0 93569-4 0 9993 2 44398 97.5877 195.3177 0025986 91.3404 269.0806 15.13898498117317 SONATE 1 44400U 19038Q 21231.62317112 .00000910 00000-0 55454-4 0 9992 2 44400 97.5947 195.1936 0026534 92.3380 268.0903 15.12655566117283 BeeSat 9 1 44412U 19038AC 21231.34968004 .00001179 00000-0 69269-4 0 9993 2 44412 97.5930 195.2458 0023806 96.7723 263.6218 15.13455586116961 JAISAT-1 1 44419U 19038F 21231.56369211 .00001258 00000-0 72708-4 0 9999 2 44419 97.5933 196.0563 0022715 94.2525 266.1303 15.13941778117347 LightSail-2 1 44420U 19036AC 21231.45882860 .00000684 00000-0 94047-4 0 9999 2 44420 24.0061 272.5707 0011853 145.6498 214.4763 14.60010641112716 Taurus 1 1 44530U 19059C 21231.69039376 .00000426 00000-0 13178-3 0 9997 2 44530 98.5524 322.5764 0012265 314.5915 45.4276 14.46143620102220 Duchifat 3 1 44854U 19089C 21231.85114969 .00000404 00000-0 38556-4 0 9993 2 44854 36.9666 85.6905 0009744 292.7872 67.1823 14.99576936 92622 OPS-SAT 1 44878U 19092F 21231.52923769 .00001115 00000-0 60293-4 0 9996 2 44878 97.4769 54.1148 0012538 316.1927 43.8310 15.16691527 92391 TO-108 1 44881U 19093C 21231.75414894 .00000062 00000-0 14613-4 0 9995 2 44881 97.9220 309.8877 0016466 87.6683 272.6420 14.81471882 90106 FloripaSat 1 1 44885U 19093G 21231.67076944 .00000258 00000-0 38835-4 0 9999 2 44885 97.9240 310.4852 0016093 95.5771 264.7283 14.82350823 90139 RS-44 1 44909U 19096E 21231.56350851 .00000030 00000-0 83455-4 0 9995 2 44909 82.5181 70.8742 0216573 305.7534 52.3596 12.79710869 76892 SwampSat-2 1 45115U 19071E 21231.79024856 .00075096 00000-0 85283-3 0 9990 2 45115 51.6332 58.5347 0006458 201.6533 158.4189 15.61635591 87310 HO-107 1 45119U 19071J 21231.59122498 .00002423 00000-0 78339-4 0 9992 2 45119 51.6419 90.6453 0011549 155.6601 204.4930 15.36221492 86875 Phoenix 1 45258U 98067RB 21231.70390650 .00009318 00000-0 12864-3 0 9998 2 45258 51.6399 12.1108 0005236 127.9375 232.2091 15.57943744 85069 AztechSat-1 1 45261U 98067RE 21231.59272911 .00036615 00000-0 30294-3 0 9995 2 45261 51.6358 357.0577 0003018 160.4766 199.6347 15.69892341 85284 QARMAN 1 45263U 98067RG 21231.56280565 .00023156 00000-0 23969-3 0 9995 2 45263 51.6384 4.4129 0004262 147.2536 212.8724 15.64596854 85216 Quetzal 1 1 45598U 98067RL 21231.56538049 .00018652 00000-0 21335-3 0 9999 2 45598 51.6400 9.7150 0001516 250.1092 109.9739 15.62195038 74417 BY70-2 1 45857U 20042B 21231.77912458 .00000953 00000-0 14177-3 0 9999 2 45857 97.9825 306.8710 0010968 19.6130 340.5499 14.77196721 60892 UPMSat 2 1 46276U 20061E 21231.16719928 .00000550 00000-0 31549-4 0 9992 2 46276 97.4289 303.6780 0002777 116.6802 243.4715 15.16564668 53046 AmicalSat 1 46287U 20061R 21231.24020785 .00000610 00000-0 40706-4 0 9991 2 46287 97.4842 303.1250 0001629 207.5558 152.5586 15.10599186 52821 SALSAT 1 46495U 20068K 21231.55369863 .00000306 00000-0 26963-4 0 9997 2 46495 97.6961 168.6854 0015800 213.8023 146.2195 15.03523350 48815 BY70-3 1 46839U 20079N 21231.80010881 .00002909 00000-0 90419-4 0 9990 2 46839 97.2367 304.4049 0006476 352.6490 147.5452 15.34118414 43919 SPOC 1 46921U 98067RR 21231.69649064 .00009487 00000-0 14253-3 0 9991 2 46921 51.6426 20.3684 0001686 321.3933 38.6938 15.55611728 44697 Bobcat-1 1 46922U 98067RS 21231.50168907 .00014502 00000-0 19649-3 0 9992 2 46922 51.6428 19.0945 0001624 326.6804 33.4086 15.57936327 44663 Neutron-1 1 46923U 98067RT 21231.52449871 .00008754 00000-0 13269-3 0 9991 2 46923 51.6424 21.4665 0001695 336.5780 23.5134 15.55480661 44709 CAPE 3 1 47309U 21002A 21231.29712720 .00001115 00000-0 60939-4 0 9996 2 47309 60.6845 56.9719 0046219 82.4205 278.2127 15.20999508 32444 AO-109 1 47311U 21002C 21231.23724912 .00001206 00000-0 63562-4 0 9995 2 47311 60.6866 56.1327 0042200 80.6156 279.9698 15.21869220 32425 MiTEE 1 1 47314U 21002F 21231.50732473 .00002974 00000-0 13242-3 0 9991 2 47314 60.6853 53.4276 0042013 73.1515 287.4174 15.23495326 32512 ExoCube 2 1 47319U 21002L 21231.48597343 .00001050 00000-0 57517-4 0 9996 2 47319 60.6838 55.6240 0042496 82.2591 278.3318 15.21490144 32425 UVSQ-SAT 1 47438U 21006AB 21231.66455763 .00000863 00000-0 52088-4 0 9990 2 47438 97.4828 291.7464 0011355 235.3602 124.6559 15.13279983 31616 YUSAT 1 1 47439U 21006AC 21231.40218227 .00000966 00000-0 57899-4 0 9994 2 47439 97.4831 291.4896 0011205 236.5900 123.4260 15.13293493 31578 SOMP 2b 1 47445U 21006AJ 21231.48732972 .00000820 00000-0 49940-4 0 9994 2 47445 97.4800 291.4466 0010931 240.3566 119.6577 15.13113430 31581 IDEASSat 1 47458U 21006AX 21231.43979461 .00000822 00000-0 50252-4 0 9999 2 47458 97.4891 291.6079 0010056 237.7921 122.2335 15.12976040 31574 RSP-01 1 47925U 98067SB 21231.46175961 .00008445 00000-0 14086-3 0 9998 2 47925 51.6427 27.0317 0001712 269.5413 90.5380 15.52867475 24567 TAUSAT-1 1 47926U 98067SC 21231.53413494 .00010076 00000-0 16174-3 0 9996 2 47926 51.6419 26.0120 0002812 269.1135 90.9534 15.53694376 24574 Tsuru 1 47927U 98067SD 21231.15345766 .00007867 00000-0 13311-3 0 9995 2 47927 51.6433 28.7229 0001749 264.5264 95.5527 15.52573724 24519 STARS-EC 1 47928U 98067SE 21231.45617313 .00011162 00000-0 18099-3 0 9990 2 47928 51.6424 26.9865 0005110 346.1407 13.9442 15.53281166 24548 Maya-2 1 47929U 98067SF 21231.72962795 .00008507 00000-0 14312-3 0 9991 2 47929 51.6431 25.8202 0001815 263.8821 96.1962 15.52611305 24566 OPUSAT-II 1 47930U 98067SG 21231.42362751 .00012521 00000-0 19861-3 0 9991 2 47930 51.6428 26.7794 0001888 258.5737 101.5042 15.53770284 24560 GuaraniSat-1 1 47931U 98067SH 21231.79258316 .00008672 00000-0 14566-3 0 9992 2 47931 51.6433 25.4928 0001868 263.8667 96.2110 15.52629373 24614 CubeSX-Sirius-HSE 1 47951U 21022V 21231.77647799 .00000517 00000-0 39718-4 0 9993 2 47951 97.5531 132.6493 0023905 94.4728 265.9230 15.05757941 22587 CubeSX-HSE 1 47952U 21022W 21231.77259216 .00000442 00000-0 34575-4 0 9990 2 47952 97.5524 132.6498 0023846 93.7333 266.6618 15.05797068 22585 KSU-Cubesat 1 47954U 21022Y 21231.43253826 .00000235 00000-0 20308-4 0 9995 2 47954 97.5523 132.3420 0023297 95.5123 264.8763 15.05880090 22258 GRBAlpha 1 47959U 21022AD 21231.77283496 .00000452 00000-0 35239-4 0 9993 2 47959 97.5533 132.6620 0023728 94.4655 265.9275 15.05796921 21401 Orbicraft-Zorkiy 1 47960U 21022AE 21231.76620063 .00000268 00000-0 22585-4 0 9994 2 47960 97.5542 132.6946 0023416 94.2548 266.1354 15.05863815 22091 STECCO 1 47962U 21022AG 21231.79707585 .00001522 00000-0 10564-3 0 9991 2 47962 97.5501 132.8877 0018349 91.9723 268.3609 15.06944376 21416 DO-111 1 47963U 21022AH 21231.22491110 .00001922 00000-0 13003-3 0 9999 2 47963 97.5518 132.4414 0021318 89.5466 270.8205 15.07531048 21357 MO-110 1 47964U 21022AJ 21231.23989479 .00000625 00000-0 45472-4 0 9996 2 47964 97.5514 132.4144 0021544 90.2556 270.1140 15.07211798 21330 FEES 1 48082U 21022AL 21231.55084518 .00001536 00000-0 10698-3 0 9996 2 48082 97.5522 132.6374 0017758 86.3011 274.0247 15.06798484 21086 RamSat 1 48850U 98067SL 21231.52433882 .00006064 00000-0 11231-3 0 9996 2 48850 51.6430 28.9252 0004239 19.2151 340.8997 15.50468615 10294 MO-112 1 48868U 98067SP 21231.71575262 .00012678 00000-0 22182-3 0 9990 2 48868 51.6426 27.9545 0002604 14.6077 345.4987 15.51000507 9103 TUBIN 1 48900U 21059X 21231.70161358 .00000835 00000-0 51978-4 0 9998 2 48900 97.5152 359.6867 0011889 66.4305 45.1450 15.12228589 8298 /EX
